sat.trackr.live / text

‹ back to catalog

TELSTAR 11N

NORAD 34111 · 2009-009A

PAYLOAD ACTIVE UNKNOWN

§ Identity

Operator
Country
CA
Launch date
2009-02-26
Launch site
TYMSC
Launch vehicle
Mass (kg)
RCS (m²)
17.60

Purposes: comms

External: N2YO · Heavens-Above · Gunter

§ Orbital elements

Epoch: 2026-09-19T09:57:02.297952Z

Period
1,436.11 min
Inclination
0.0169°
Eccentricity
0.0002518
Mean motion
1.00270939 rev/d
Perigee alt
35,776.2 km
Apogee alt
35,797.4 km
Semi-major
42,165.0 km
B*
0.0000e+0
RAAN
206.4777°
Arg perigee
327.1448°
Mean anomaly
296.4136°
Rev number
4,719

§ Raw data

TELSTAR 11N1 34111U 09009A   26262.41460993 -.00000255  00000+0  00000+0 0  99932 34111   0.0169 206.4777 0002518 327.1448 296.4136  1.00270939 47199

JSON: /api/v1/satellites/34111 · /tle

For live sub-satellite position, see the globe view (requires WebGL).

§ Visibility from observer

Set your observer location to see the next 7 days of passes ≥ 10°. The values pass through the URL so the page stays shareable.

No JS? Fill the form by hand. The geolocation button needs JavaScript.